Time,TemperatureF,DewpointF,PressureIn,WindDirection,WindDirectionDegrees,WindSpeedMPH,WindSpeedGustMPH,Humidity,HourlyPrecipIn,Conditions,Clouds,dailyrainin,SoftwareType,DateUTC
2013-04-21 00:00:00,33.1,23.7,30.05,ENE,68,0.7,1.8,68,0.00,,,0.00,WUHU216HW,2013-04-21 04:00:00,
2013-04-21 00:01:00,33.1,23.7,30.05,ENE,68,0.7,1.8,68,0.00,,,0.00,WUHU216HW,2013-04-21 04:01:00,
2013-04-21 00:06:00,33.1,24.0,30.04,East,90,0.0,1.8,69,0.00,,,0.00,WUHU216HW,2013-04-21 04:06:00,
2013-04-21 00:11:00,33.1,24.0,30.05,NNW,338,0.0,0.7,69,0.00,,,0.00,WUHU216HW,2013-04-21 04:11:00,
2013-04-21 00:16:00,32.9,23.9,30.06,NNW,338,0.4,0.7,69,0.00,,,0.00,WUHU216HW,2013-04-21 04:16:00,
2013-04-21 00:21:00,32.8,23.7,30.05,NW,315,0.2,0.9,69,0.00,,,0.00,WUHU216HW,2013-04-21 04:21:00,
2013-04-21 00:26:00,32.6,23.9,30.06,NW,315,1.1,1.1,70,0.00,,,0.00,WUHU216HW,2013-04-21 04:26:00,
2013-04-21 00:31:00,32.6,23.5,30.06,NNW,338,1.1,1.8,69,0.00,,,0.00,WUHU216HW,2013-04-21 04:31:00,
2013-04-21 00:36:00,32.6,23.9,30.06,NW,315,0.4,1.8,70,0.00,,,0.00,WUHU216HW,2013-04-21 04:36:00,
2013-04-21 00:41:00,32.6,23.9,30.06,West,270,2.5,2.5,70,0.00,,,0.00,WUHU216HW,2013-04-21 04:41:00,
2013-04-21 00:46:00,32.4,23.8,30.06,NW,315,1.8,2.5,70,0.00,,,0.00,WUHU216HW,2013-04-21 04:46:00,
2013-04-21 00:51:00,32.0,23.4,30.07,West,270,0.9,2.5,70,0.00,,,0.00,WUHU216HW,2013-04-21 04:51:00,
2013-04-21 00:56:00,31.9,23.2,30.07,West,270,0.4,2.0,70,0.00,,,0.00,WUHU216HW,2013-04-21 04:56:00,
2013-04-21 01:01:00,31.9,23.2,30.07,West,270,0.2,1.3,70,0.00,,,0.00,WUHU216HW,2013-04-21 05:01:00,
2013-04-21 01:06:00,31.9,23.2,30.07,WSW,248,0.0,0.4,70,0.00,,,0.00,WUHU216HW,2013-04-21 05:06:00,
2013-04-21 01:11:00,31.9,23.6,30.07,WSW,248,0.0,0.4,71,0.00,,,0.00,WUHU216HW,2013-04-21 05:11:00,
2013-04-21 01:16:00,31.9,23.6,30.07,WSW,248,0.0,0.0,71,0.00,,,0.00,WUHU216HW,2013-04-21 05:16:00,
2013-04-21 01:21:00,31.7,23.4,30.08,WSW,248,0.7,0.7,71,0.00,,,0.00,WUHU216HW,2013-04-21 05:21:00,
2013-04-21 01:26:00,31.7,23.4,30.08,WSW,248,0.0,0.7,71,0.00,,,0.00,WUHU216HW,2013-04-21 05:26:00,
2013-04-21 01:31:00,31.5,23.5,30.08,WNW,293,0.4,1.3,72,0.00,,,0.00,WUHU216HW,2013-04-21 05:31:00,
2013-04-21 01:36:00,31.3,23.3,30.08,WSW,248,0.7,1.3,72,0.00,,,0.00,WUHU216HW,2013-04-21 05:36:00,
2013-04-21 01:41:00,31.1,23.1,30.09,SSW,203,0.0,0.7,72,0.00,,,0.00,WUHU216HW,2013-04-21 05:41:00,
2013-04-21 01:46:00,31.1,23.1,30.08,WSW,248,0.0,0.7,72,0.00,,,0.00,WUHU216HW,2013-04-21 05:46:00,
2013-04-21 01:51:00,31.0,23.0,30.09,WSW,248,0.0,0.0,72,0.00,,,0.00,WUHU216HW,2013-04-21 05:51:00,
2013-04-21 01:56:00,31.0,23.0,30.09,WSW,248,0.0,0.0,72,0.00,,,0.00,WUHU216HW,2013-04-21 05:56:00,
2013-04-21 02:01:00,30.8,22.8,30.09,WSW,248,0.0,0.0,72,0.00,,,0.00,WUHU216HW,2013-04-21 06:01:00,
2013-04-21 02:06:00,30.6,23.0,30.09,WSW,248,0.0,0.0,73,0.00,,,0.00,WUHU216HW,2013-04-21 06:06:00,
2013-04-21 02:11:00,30.6,23.0,30.09,West,270,0.0,0.2,73,0.00,,,0.00,WUHU216HW,2013-04-21 06:11:00,
2013-04-21 02:16:00,30.4,22.8,30.09,NW,315,0.0,0.2,73,0.00,,,0.00,WUHU216HW,2013-04-21 06:16:00,
2013-04-21 02:21:00,30.4,22.8,30.09,NW,315,0.2,0.2,73,0.00,,,0.00,WUHU216HW,2013-04-21 06:21:00,
2013-04-21 02:26:00,30.2,22.6,30.09,NW,315,0.2,0.4,73,0.00,,,0.00,WUHU216HW,2013-04-21 06:26:00,
2013-04-21 02:31:00,30.1,22.4,30.09,NW,315,0.0,0.4,73,0.00,,,0.00,WUHU216HW,2013-04-21 06:31:00,
2013-04-21 02:36:00,29.9,22.2,30.10,WNW,293,0.4,0.7,73,0.00,,,0.00,WUHU216HW,2013-04-21 06:36:00,
2013-04-21 02:41:00,29.9,22.6,30.10,NW,315,0.7,1.1,74,0.00,,,0.00,WUHU216HW,2013-04-21 06:41:00,
2013-04-21 02:46:00,29.5,22.2,30.10,NW,315,0.4,1.1,74,0.00,,,0.00,WUHU216HW,2013-04-21 06:46:00,
2013-04-21 02:51:00,29.5,22.5,30.10,NW,315,1.1,1.6,75,0.00,,,0.00,WUHU216HW,2013-04-21 06:51:00,
2013-04-21 02:56:00,29.7,22.7,30.10,NW,315,0.4,1.6,75,0.00,,,0.00,WUHU216HW,2013-04-21 06:56:00,
2013-04-21 03:01:00,29.9,22.9,30.10,NNE,23,0.0,1.1,75,0.00,,,0.00,WUHU216HW,2013-04-21 07:01:00,
2013-04-21 03:06:00,29.9,22.9,30.10,NE,45,0.0,0.4,75,0.00,,,0.00,WUHU216HW,2013-04-21 07:06:00,
2013-04-21 03:11:00,30.1,23.0,30.10,WNW,293,0.0,0.4,75,0.00,,,0.00,WUHU216HW,2013-04-21 07:11:00,
2013-04-21 03:16:00,30.2,23.2,30.10,NNW,338,0.0,0.4,75,0.00,,,0.00,WUHU216HW,2013-04-21 07:16:00,
2013-04-21 03:21:00,30.2,22.9,30.10,NNW,338,0.0,0.0,74,0.00,,,0.00,WUHU216HW,2013-04-21 07:21:00,
2013-04-21 03:26:00,30.2,22.9,30.10,North,0,0.0,0.0,74,0.00,,,0.00,WUHU216HW,2013-04-21 07:26:00,
2013-04-21 03:31:00,30.1,22.8,30.11,North,0,0.0,0.0,74,0.00,,,0.00,WUHU216HW,2013-04-21 07:31:00,
2013-04-21 03:36:00,29.9,22.6,30.11,WNW,293,0.0,0.0,74,0.00,,,0.00,WUHU216HW,2013-04-21 07:36:00,
2013-04-21 03:41:00,29.9,22.6,30.11,WSW,248,0.4,0.4,74,0.00,,,0.00,WUHU216HW,2013-04-21 07:41:00,
2013-04-21 03:46:00,29.7,22.4,30.11,West,270,0.4,0.7,74,0.00,,,0.00,WUHU216HW,2013-04-21 07:46:00,
2013-04-21 03:51:00,29.3,22.1,30.11,West,270,0.7,1.1,74,0.00,,,0.00,WUHU216HW,2013-04-21 07:51:00,
2013-04-21 03:56:00,29.0,22.1,30.12,WSW,248,0.4,1.1,75,0.00,,,0.00,WUHU216HW,2013-04-21 07:56:00,
2013-04-21 04:01:00,29.2,22.2,30.12,WSW,248,0.0,1.1,75,0.00,,,0.00,WUHU216HW,2013-04-21 08:01:00,
2013-04-21 04:06:00,29.2,22.5,30.12,WSW,248,0.0,0.4,76,0.00,,,0.00,WUHU216HW,2013-04-21 08:06:00,
2013-04-21 04:11:00,28.8,22.1,30.12,West,270,0.9,1.3,76,0.00,,,0.00,WUHU216HW,2013-04-21 08:11:00,
2013-04-21 04:16:00,28.4,21.8,30.12,SSW,203,1.1,1.8,76,0.00,,,0.00,WUHU216HW,2013-04-21 08:16:00,
2013-04-21 04:21:00,28.4,21.5,30.12,SW,225,1.6,1.8,75,0.00,,,0.00,WUHU216HW,2013-04-21 08:21:00,
2013-04-21 04:26:00,28.6,21.7,30.12,WSW,248,1.1,1.8,75,0.00,,,0.00,WUHU216HW,2013-04-21 08:26:00,
2013-04-21 04:31:00,28.6,22.0,30.13,SW,225,1.3,1.8,76,0.00,,,0.00,WUHU216HW,2013-04-21 08:31:00,
2013-04-21 04:36:00,28.6,22.0,30.13,SW,225,1.8,2.0,76,0.00,,,0.00,WUHU216HW,2013-04-21 08:36:00,
2013-04-21 04:41:00,28.6,22.0,30.13,SW,225,1.1,2.0,76,0.00,,,0.00,WUHU216HW,2013-04-21 08:41:00,
2013-04-21 04:46:00,28.6,22.0,30.13,WSW,248,0.4,1.8,76,0.00,,,0.00,WUHU216HW,2013-04-21 08:46:00,
2013-04-21 04:51:00,28.6,22.0,30.13,WSW,248,0.0,1.1,76,0.00,,,0.00,WUHU216HW,2013-04-21 08:51:00,
2013-04-21 04:56:00,28.6,22.0,30.14,WSW,248,0.0,0.9,76,0.00,,,0.00,WUHU216HW,2013-04-21 08:56:00,
2013-04-21 05:01:00,28.6,22.0,30.14,SSE,158,0.0,0.0,76,0.00,,,0.00,WUHU216HW,2013-04-21 09:01:00,
2013-04-21 05:06:00,28.6,22.0,30.14,SSE,158,0.0,0.0,76,0.00,,,0.00,WUHU216HW,2013-04-21 09:06:00,
2013-04-21 05:11:00,28.4,21.8,30.14,ESE,113,0.0,0.0,76,0.00,,,0.00,WUHU216HW,2013-04-21 09:11:00,
2013-04-21 05:16:00,28.4,21.8,30.14,ESE,113,0.7,0.7,76,0.00,,,0.00,WUHU216HW,2013-04-21 09:16:00,
2013-04-21 05:21:00,28.4,21.8,30.14,ESE,113,0.2,0.7,76,0.00,,,0.00,WUHU216HW,2013-04-21 09:21:00,
2013-04-21 05:26:00,28.3,21.6,30.14,SE,135,0.0,0.7,76,0.00,,,0.00,WUHU216HW,2013-04-21 09:26:00,
2013-04-21 05:31:00,28.3,21.6,30.15,SE,135,0.0,0.2,76,0.00,,,0.00,WUHU216HW,2013-04-21 09:31:00,
2013-04-21 05:36:00,28.1,21.4,30.15,SE,135,0.0,0.0,76,0.00,,,0.00,WUHU216HW,2013-04-21 09:36:00,
2013-04-21 05:41:00,27.9,21.2,30.15,SE,135,0.0,0.0,76,0.00,,,0.00,WUHU216HW,2013-04-21 09:41:00,
2013-04-21 05:46:00,27.9,21.6,30.15,SE,135,0.0,0.0,77,0.00,,,0.00,WUHU216HW,2013-04-21 09:46:00,
2013-04-21 05:51:00,27.7,21.1,30.15,SSE,158,0.0,0.0,76,0.00,,,0.00,WUHU216HW,2013-04-21 09:51:00,
2013-04-21 05:56:00,27.7,21.1,30.16,West,270,0.4,0.7,76,0.00,,,0.00,WUHU216HW,2013-04-21 09:56:00,
2013-04-21 06:01:00,27.4,20.7,30.16,SW,225,0.4,0.9,76,0.00,,,0.00,WUHU216HW,2013-04-21 10:01:00,
2013-04-21 06:06:00,27.4,21.1,30.17,WSW,248,0.4,0.9,77,0.00,,,0.00,WUHU216HW,2013-04-21 10:06:00,
2013-04-21 06:11:00,27.4,21.1,30.17,SW,225,0.0,0.7,77,0.00,,,0.00,WUHU216HW,2013-04-21 10:11:00,
2013-04-21 06:16:00,27.4,21.1,30.17,SSW,203,0.0,0.7,77,0.00,,,0.00,WUHU216HW,2013-04-21 10:16:00,
2013-04-21 06:21:00,27.4,21.1,30.17,SE,135,0.4,0.4,77,0.00,,,0.00,WUHU216HW,2013-04-21 10:21:00,
2013-04-21 06:26:00,27.0,20.7,30.18,WNW,293,0.4,1.1,77,0.00,,,0.00,WUHU216HW,2013-04-21 10:26:00,
2013-04-21 06:31:00,26.8,20.5,30.18,WSW,248,1.1,1.1,77,0.00,,,0.00,WUHU216HW,2013-04-21 10:31:00,
2013-04-21 06:36:00,26.8,20.5,30.18,WSW,248,0.7,1.3,77,0.00,,,0.00,WUHU216HW,2013-04-21 10:36:00,
2013-04-21 06:41:00,26.8,20.8,30.19,SW,225,0.4,1.8,78,0.00,,,0.00,WUHU216HW,2013-04-21 10:41:00,
2013-04-21 06:46:00,26.8,20.8,30.19,SW,225,0.4,1.8,78,0.00,,,0.00,WUHU216HW,2013-04-21 10:46:00,
2013-04-21 06:51:00,27.0,21.0,30.20,SW,225,0.0,0.7,78,0.00,,,0.00,WUHU216HW,2013-04-21 10:51:00,
2013-04-21 06:56:00,27.0,21.3,30.20,WSW,248,0.2,0.4,79,0.00,,,0.00,WUHU216HW,2013-04-21 10:56:00,
2013-04-21 07:01:00,27.2,21.5,30.20,WSW,248,0.0,0.4,79,0.00,,,0.00,WUHU216HW,2013-04-21 11:01:00,
2013-04-21 07:06:00,27.2,21.5,30.20,WSW,248,0.0,0.4,79,0.00,,,0.00,WUHU216HW,2013-04-21 11:06:00,
2013-04-21 07:11:00,27.4,21.7,30.21,SW,225,0.0,0.0,79,0.00,,,0.00,WUHU216HW,2013-04-21 11:11:00,
2013-04-21 07:16:00,27.5,21.9,30.21,South,180,0.0,0.0,79,0.00,,,0.00,WUHU216HW,2013-04-21 11:16:00,
2013-04-21 07:21:00,27.7,22.1,30.21,SE,135,0.0,0.0,79,0.00,,,0.00,WUHU216HW,2013-04-21 11:21:00,
2013-04-21 07:26:00,27.7,22.1,30.21,WSW,248,0.0,0.0,79,0.00,,,0.00,WUHU216HW,2013-04-21 11:26:00,
2013-04-21 07:31:00,28.1,22.4,30.22,NW,315,0.0,0.0,79,0.00,,,0.00,WUHU216HW,2013-04-21 11:31:00,
2013-04-21 07:36:00,28.3,22.6,30.22,NW,315,0.0,0.0,79,0.00,,,0.00,WUHU216HW,2013-04-21 11:36:00,
2013-04-21 07:41:00,28.3,22.6,30.22,West,270,0.0,0.7,79,0.00,,,0.00,WUHU216HW,2013-04-21 11:41:00,
2013-04-21 07:46:00,28.6,23.0,30.22,SSW,203,0.4,0.7,79,0.00,,,0.00,WUHU216HW,2013-04-21 11:46:00,
2013-04-21 07:51:00,28.8,23.1,30.22,WSW,248,0.9,0.9,79,0.00,,,0.00,WUHU216HW,2013-04-21 11:51:00,
2013-04-21 07:56:00,29.0,23.3,30.22,South,180,0.4,0.9,79,0.00,,,0.00,WUHU216HW,2013-04-21 11:56:00,
2013-04-21 08:00:00,29.2,23.5,30.23,South,180,0.0,0.9,79,0.00,,,0.00,WUHU216HW,2013-04-21 12:00:00,
2013-04-21 08:06:00,29.5,23.8,30.23,NNE,23,0.0,0.7,79,0.00,,,0.00,WUHU216HW,2013-04-21 12:06:00,
2013-04-21 08:10:00,29.9,23.9,30.23,ESE,113,0.2,1.1,78,0.00,,,0.00,WUHU216HW,2013-04-21 12:10:00,
2013-04-21 08:15:00,30.2,24.2,30.23,SE,135,1.1,1.8,78,0.00,,,0.00,WUHU216HW,2013-04-21 12:15:00,
2013-04-21 08:20:00,30.6,24.6,30.24,NE,45,0.4,1.8,78,0.00,,,0.00,WUHU216HW,2013-04-21 12:20:00,
2013-04-21 08:25:00,30.8,24.8,30.24,ENE,68,1.3,1.3,78,0.00,,,0.00,WUHU216HW,2013-04-21 12:25:00,
2013-04-21 08:30:00,31.1,25.1,30.24,NE,45,1.8,2.5,78,0.00,,,0.00,WUHU216HW,2013-04-21 12:30:00,
2013-04-21 08:35:00,31.5,25.5,30.24,NE,45,1.1,2.9,78,0.00,,,0.00,WUHU216HW,2013-04-21 12:35:00,
2013-04-21 08:40:00,31.9,25.2,30.25,ESE,113,2.2,3.4,76,0.00,,,0.00,WUHU216HW,2013-04-21 12:40:00,
2013-04-21 08:45:00,32.0,25.4,30.25,NE,45,0.4,3.4,76,0.00,,,0.00,WUHU216HW,2013-04-21 12:45:00,
2013-04-21 08:50:00,32.4,25.7,30.25,SSE,158,1.6,3.1,76,0.00,,,0.00,WUHU216HW,2013-04-21 12:50:00,
2013-04-21 08:55:00,32.8,26.0,30.26,NE,45,0.9,3.1,76,0.00,,,0.00,WUHU216HW,2013-04-21 12:55:00,
2013-04-21 09:00:00,33.1,26.0,30.26,SE,135,2.5,2.5,75,0.00,,,0.00,WUHU216HW,2013-04-21 13:00:00,
2013-04-21 09:05:00,33.5,26.0,30.26,SE,135,2.5,3.8,74,0.00,,,0.00,WUHU216HW,2013-04-21 13:05:00,
2013-04-21 09:10:00,33.8,26.0,30.26,NE,45,2.0,4.7,73,0.00,,,0.00,WUHU216HW,2013-04-21 13:10:00,
2013-04-21 09:15:00,34.0,25.8,30.26,SE,135,3.8,4.7,72,0.00,,,0.00,WUHU216HW,2013-04-21 13:15:00,
2013-04-21 09:20:00,34.4,26.2,30.26,ENE,68,1.8,4.0,72,0.00,,,0.00,WUHU216HW,2013-04-21 13:20:00,
2013-04-21 09:25:00,34.6,26.4,30.26,ESE,113,1.1,4.7,72,0.00,,,0.00,WUHU216HW,2013-04-21 13:25:00,
2013-04-21 09:30:00,35.1,26.9,30.27,SE,135,3.8,5.1,72,0.00,,,0.00,WUHU216HW,2013-04-21 13:30:00,
2013-04-21 09:35:00,35.6,27.2,30.27,SE,135,4.7,5.6,71,0.00,,,0.00,WUHU216HW,2013-04-21 13:35:00,
2013-04-21 09:40:00,36.0,27.6,30.27,SSE,158,2.0,5.6,71,0.00,,,0.00,WUHU216HW,2013-04-21 13:40:00,
2013-04-21 09:45:00,36.2,27.0,30.27,ENE,68,1.1,5.6,69,0.00,,,0.00,WUHU216HW,2013-04-21 13:45:00,
2013-04-21 09:50:00,36.4,27.2,30.27,NNE,23,1.3,3.8,69,0.00,,,0.00,WUHU216HW,2013-04-21 13:50:00,
2013-04-21 09:55:00,36.7,27.6,30.27,NNE,23,2.7,2.7,69,0.00,,,0.00,WUHU216HW,2013-04-21 13:55:00,
2013-04-21 10:00:00,36.9,26.6,30.27,ENE,68,2.5,3.4,66,0.00,,,0.00,WUHU216HW,2013-04-21 14:00:00,
2013-04-21 10:05:00,37.3,26.6,30.27,NW,315,0.4,4.0,65,0.00,,,0.00,WUHU216HW,2013-04-21 14:05:00,
2013-04-21 10:10:00,37.6,26.6,30.27,SSE,158,3.4,4.0,64,0.00,,,0.00,WUHU216HW,2013-04-21 14:10:00,
2013-04-21 10:15:00,38.2,27.0,30.27,NNE,23,0.9,4.3,64,0.00,,,0.00,WUHU216HW,2013-04-21 14:15:00,
2013-04-21 10:20:00,38.9,27.3,30.27,NNE,23,1.1,4.5,63,0.00,,,0.00,WUHU216HW,2013-04-21 14:20:00,
2013-04-21 10:25:00,39.6,28.0,30.27,SE,135,5.6,6.9,63,0.00,,,0.00,WUHU216HW,2013-04-21 14:25:00,
2013-04-21 10:30:00,40.1,28.1,30.28,ESE,113,1.1,6.9,62,0.00,,,0.00,WUHU216HW,2013-04-21 14:30:00,
2013-04-21 10:35:00,40.7,28.6,30.27,NE,45,0.7,5.6,62,0.00,,,0.00,WUHU216HW,2013-04-21 14:35:00,
2013-04-21 10:40:00,41.6,28.7,30.28,ESE,113,6.3,6.3,60,0.00,,,0.00,WUHU216HW,2013-04-21 14:40:00,
2013-04-21 10:45:00,41.8,28.4,30.28,SE,135,2.5,6.3,59,0.00,,,0.00,WUHU216HW,2013-04-21 14:45:00,
2013-04-21 10:50:00,41.8,28.0,30.28,ESE,113,4.0,6.3,58,0.00,,,0.00,WUHU216HW,2013-04-21 14:50:00,
2013-04-21 10:55:00,41.8,28.0,30.28,SSE,158,3.4,5.8,58,0.00,,,0.00,WUHU216HW,2013-04-21 14:55:00,
2013-04-21 11:00:00,41.9,28.2,30.28,South,180,1.8,5.1,58,0.00,,,0.00,WUHU216HW,2013-04-21 15:00:00,
2013-04-21 11:05:00,42.7,28.9,30.28,ENE,68,1.8,4.7,58,0.00,,,0.00,WUHU216HW,2013-04-21 15:05:00,
2013-04-21 11:10:00,43.2,28.9,30.28,NE,45,1.1,5.6,57,0.00,,,0.00,WUHU216HW,2013-04-21 15:10:00,
2013-04-21 11:15:00,43.6,29.3,30.28,ENE,68,2.0,5.6,57,0.00,,,0.00,WUHU216HW,2013-04-21 15:15:00,
2013-04-21 11:20:00,43.6,28.8,30.28,SE,135,5.4,6.3,56,0.00,,,0.00,WUHU216HW,2013-04-21 15:20:00,
2013-04-21 11:25:00,43.4,26.9,30.28,NNW,338,6.3,6.3,52,0.00,,,0.00,WUHU216HW,2013-04-21 15:25:00,
2013-04-21 11:30:00,42.8,27.3,30.28,East,90,2.5,6.3,54,0.00,,,0.00,WUHU216HW,2013-04-21 15:30:00,
2013-04-21 11:35:00,43.4,28.3,30.28,ESE,113,2.5,6.3,55,0.00,,,0.00,WUHU216HW,2013-04-21 15:35:00,
2013-04-21 11:40:00,43.6,27.6,30.29,NNW,338,1.1,8.3,53,0.00,,,0.00,WUHU216HW,2013-04-21 15:40:00,
2013-04-21 11:45:00,43.6,27.6,30.28,WNW,293,0.4,8.3,53,0.00,,,0.00,WUHU216HW,2013-04-21 15:45:00,
2013-04-21 11:50:00,42.8,26.8,30.29,NNE,23,3.4,4.7,53,0.00,,,0.00,WUHU216HW,2013-04-21 15:50:00,
2013-04-21 11:55:00,41.9,25.6,30.28,NE,45,3.4,3.6,52,0.00,,,0.00,WUHU216HW,2013-04-21 15:55:00,
2013-04-21 12:00:00,41.6,25.7,30.28,ESE,113,1.8,3.4,53,0.00,,,0.00,WUHU216HW,2013-04-21 16:00:00,
2013-04-21 12:05:00,41.8,25.8,30.28,East,90,1.1,4.0,53,0.00,,,0.00,WUHU216HW,2013-04-21 16:05:00,
2013-04-21 12:10:00,42.1,26.7,30.28,North,0,1.6,4.0,54,0.00,,,0.00,WUHU216HW,2013-04-21 16:10:00,
2013-04-21 12:15:00,42.8,27.3,30.28,WNW,293,0.9,5.4,54,0.00,,,0.00,WUHU216HW,2013-04-21 16:15:00,
2013-04-21 12:20:00,42.3,25.0,30.28,NW,315,3.1,5.4,50,0.00,,,0.00,WUHU216HW,2013-04-21 16:20:00,
2013-04-21 12:25:00,41.6,25.2,30.27,WSW,248,1.8,3.6,52,0.00,,,0.00,WUHU216HW,2013-04-21 16:25:00,
2013-04-21 12:30:00,42.1,26.2,30.27,North,0,1.3,4.3,53,0.00,,,0.00,WUHU216HW,2013-04-21 16:30:00,
2013-04-21 12:35:00,43.4,27.8,30.27,ENE,68,4.9,6.9,54,0.00,,,0.00,WUHU216HW,2013-04-21 16:35:00,
2013-04-21 12:40:00,44.5,28.4,30.27,South,180,3.4,7.8,53,0.00,,,0.00,WUHU216HW,2013-04-21 16:40:00,
2013-04-21 12:45:00,45.0,29.4,30.27,SSE,158,1.8,7.8,54,0.00,,,0.00,WUHU216HW,2013-04-21 16:45:00,
2013-04-21 12:50:00,45.7,29.1,30.27,West,270,0.4,6.9,52,0.00,,,0.00,WUHU216HW,2013-04-21 16:50:00,
2013-04-21 12:55:00,46.1,29.3,30.26,NE,45,4.7,6.9,52,0.00,,,0.00,WUHU216HW,2013-04-21 16:55:00,
2013-04-21 13:00:00,46.4,29.7,30.26,ESE,113,4.3,6.9,52,0.00,,,0.00,WUHU216HW,2013-04-21 17:00:00,
2013-04-21 13:05:00,47.0,29.7,30.26,ESE,113,5.4,6.9,51,0.00,,,0.00,WUHU216HW,2013-04-21 17:05:00,
2013-04-21 13:10:00,47.2,30.3,30.26,NNE,23,3.8,6.9,52,0.00,,,0.00,WUHU216HW,2013-04-21 17:10:00,
2013-04-21 13:15:00,47.7,30.4,30.26,SSE,158,1.1,5.8,51,0.00,,,0.00,WUHU216HW,2013-04-21 17:15:00,
2013-04-21 13:20:00,48.1,30.7,30.25,NNE,23,2.5,5.8,51,0.00,,,0.00,WUHU216HW,2013-04-21 17:20:00,
2013-04-21 13:25:00,48.4,30.1,30.25,NE,45,1.3,7.2,49,0.00,,,0.00,WUHU216HW,2013-04-21 17:25:00,
2013-04-21 13:30:00,48.6,30.8,30.25,WNW,293,1.1,7.2,50,0.00,,,0.00,WUHU216HW,2013-04-21 17:30:00,
2013-04-21 13:35:00,49.1,31.3,30.25,ENE,68,5.8,6.7,50,0.00,,,0.00,WUHU216HW,2013-04-21 17:35:00,
2013-04-21 13:40:00,49.3,30.4,30.25,ENE,68,3.8,6.7,48,0.00,,,0.00,WUHU216HW,2013-04-21 17:40:00,
2013-04-21 13:45:00,49.3,30.4,30.25,ESE,113,3.4,5.8,48,0.00,,,0.00,WUHU216HW,2013-04-21 17:45:00,
2013-04-21 13:50:00,50.0,31.2,30.25,ENE,68,6.3,6.3,48,0.00,,,0.00,WUHU216HW,2013-04-21 17:50:00,
2013-04-21 13:55:00,50.2,29.6,30.25,NNE,23,2.9,6.5,45,0.00,,,0.00,WUHU216HW,2013-04-21 17:55:00,
2013-04-21 14:00:00,49.3,28.7,30.25,SE,135,3.6,6.5,45,0.00,,,0.00,WUHU216HW,2013-04-21 18:00:00,
2013-04-21 14:05:00,50.2,30.7,30.25,SE,135,6.0,6.9,47,0.00,,,0.00,WUHU216HW,2013-04-21 18:05:00,
2013-04-21 14:10:00,50.9,31.3,30.24,ENE,68,7.8,7.8,47,0.00,,,0.00,WUHU216HW,2013-04-21 18:10:00,
2013-04-21 14:15:00,51.7,32.1,30.24,SE,135,3.4,8.1,47,0.00,,,0.00,WUHU216HW,2013-04-21 18:15:00,
2013-04-21 14:20:00,52.2,32.0,30.24,East,90,4.0,8.5,46,0.00,,,0.00,WUHU216HW,2013-04-21 18:20:00,
2013-04-21 14:25:00,52.7,32.4,30.24,East,90,3.8,8.5,46,0.00,,,0.00,WUHU216HW,2013-04-21 18:25:00,
2013-04-21 14:30:00,52.9,31.5,30.24,ENE,68,1.1,8.1,44,0.00,,,0.00,WUHU216HW,2013-04-21 18:30:00,
2013-04-21 14:35:00,52.6,30.6,30.24,ENE,68,1.8,7.2,43,0.00,,,0.00,WUHU216HW,2013-04-21 18:35:00,
2013-04-21 14:40:00,52.7,31.3,30.23,ENE,68,3.8,8.5,44,0.00,,,0.00,WUHU216HW,2013-04-21 18:40:00,
2013-04-21 14:45:00,53.3,32.3,30.23,East,90,5.4,8.5,45,0.00,,,0.00,WUHU216HW,2013-04-21 18:45:00,
2013-04-21 14:50:00,53.8,32.9,30.23,ESE,113,10.5,10.5,45,0.00,,,0.00,WUHU216HW,2013-04-21 18:50:00,
2013-04-21 14:55:00,54.2,32.6,30.23,ENE,68,2.0,10.5,44,0.00,,,0.00,WUHU216HW,2013-04-21 18:55:00,
2013-04-21 15:00:00,54.5,32.4,30.23,East,90,6.3,10.5,43,0.00,,,0.00,WUHU216HW,2013-04-21 19:00:00,
2013-04-21 15:05:00,55.1,33.4,30.23,NE,45,4.0,7.4,44,0.00,,,0.00,WUHU216HW,2013-04-21 19:05:00,
2013-04-21 15:10:00,55.1,32.9,30.22,SSE,158,1.6,7.4,43,0.00,,,0.00,WUHU216HW,2013-04-21 19:10:00,
2013-04-21 15:15:00,55.6,33.3,30.22,ENE,68,6.7,7.2,43,0.00,,,0.00,WUHU216HW,2013-04-21 19:15:00,
2013-04-21 15:20:00,55.8,32.9,30.22,SE,135,4.5,10.5,42,0.00,,,0.00,WUHU216HW,2013-04-21 19:20:00,
2013-04-21 15:25:00,55.8,31.9,30.22,SSE,158,5.6,10.5,40,0.00,,,0.00,WUHU216HW,2013-04-21 19:25:00,
2013-04-21 15:30:00,55.4,33.2,30.21,WNW,293,1.1,8.7,43,0.00,,,0.00,WUHU216HW,2013-04-21 19:30:00,
2013-04-21 15:35:00,55.3,31.9,30.21,SW,225,1.8,9.8,41,0.00,,,0.00,WUHU216HW,2013-04-21 19:35:00,
2013-04-21 15:40:00,55.6,32.2,30.21,SSE,158,4.7,9.8,41,0.00,,,0.00,WUHU216HW,2013-04-21 19:40:00,
2013-04-21 15:45:00,56.2,32.7,30.20,SE,135,6.3,9.4,41,0.00,,,0.00,WUHU216HW,2013-04-21 19:45:00,
2013-04-21 15:50:00,56.7,33.8,30.20,WSW,248,1.1,9.4,42,0.00,,,0.00,WUHU216HW,2013-04-21 19:50:00,
2013-04-21 15:55:00,57.2,33.7,30.20,ESE,113,3.4,8.5,41,0.00,,,0.00,WUHU216HW,2013-04-21 19:55:00,
2013-04-21 16:00:00,57.2,33.1,30.20,ENE,68,8.7,9.2,40,0.00,,,0.00,WUHU216HW,2013-04-21 20:00:00,
2013-04-21 16:05:00,57.1,33.6,30.20,SSE,158,5.1,9.2,41,0.00,,,0.00,WUHU216HW,2013-04-21 20:05:00,
2013-04-21 16:10:00,57.2,33.1,30.20,NE,45,7.6,8.7,40,0.00,,,0.00,WUHU216HW,2013-04-21 20:10:00,
2013-04-21 16:15:00,57.2,33.1,30.19,SSW,203,3.4,7.8,40,0.00,,,0.00,WUHU216HW,2013-04-21 20:15:00,
2013-04-21 16:20:00,57.2,32.4,30.19,ESE,113,8.7,9.4,39,0.00,,,0.00,WUHU216HW,2013-04-21 20:20:00,
2013-04-21 16:25:00,57.4,32.6,30.19,ENE,68,5.4,9.4,39,0.00,,,0.00,WUHU216HW,2013-04-21 20:25:00,
2013-04-21 16:30:00,57.4,33.3,30.19,NE,45,6.9,8.9,40,0.00,,,0.00,WUHU216HW,2013-04-21 20:30:00,
2013-04-21 16:35:00,57.1,32.2,30.19,SSE,158,3.6,8.9,39,0.00,,,0.00,WUHU216HW,2013-04-21 20:35:00,
2013-04-21 16:40:00,56.9,32.8,30.19,ENE,68,8.9,9.4,40,0.00,,,0.00,WUHU216HW,2013-04-21 20:40:00,
2013-04-21 16:45:00,56.9,32.1,30.19,SE,135,6.0,9.4,39,0.00,,,0.00,WUHU216HW,2013-04-21 20:45:00,
2013-04-21 16:50:00,57.1,32.9,30.19,ENE,68,7.6,8.9,40,0.00,,,0.00,WUHU216HW,2013-04-21 20:50:00,
2013-04-21 16:55:00,57.4,32.6,30.19,SE,135,5.1,10.1,39,0.00,,,0.00,WUHU216HW,2013-04-21 20:55:00,
2013-04-21 17:00:00,57.4,31.9,30.18,ESE,113,10.1,11.4,38,0.00,,,0.00,WUHU216HW,2013-04-21 21:00:00,
2013-04-21 17:05:00,57.6,32.8,30.19,East,90,2.9,11.9,39,0.00,,,0.00,WUHU216HW,2013-04-21 21:05:00,
2013-04-21 17:10:00,58.0,33.0,30.18,ENE,68,2.7,11.9,39,0.00,,,0.00,WUHU216HW,2013-04-21 21:10:00,
2013-04-21 17:15:00,57.8,32.2,30.18,ENE,68,10.3,11.2,38,0.00,,,0.00,WUHU216HW,2013-04-21 21:15:00,
2013-04-21 17:20:00,57.6,32.0,30.18,NE,45,4.9,11.2,38,0.00,,,0.00,WUHU216HW,2013-04-21 21:20:00,
2013-04-21 17:25:00,57.2,32.4,30.18,South,180,4.3,10.3,39,0.00,,,0.00,WUHU216HW,2013-04-21 21:25:00,
2013-04-21 17:30:00,57.8,33.0,30.18,ENE,68,10.5,10.5,39,0.00,,,0.00,WUHU216HW,2013-04-21 21:30:00,
2013-04-21 17:35:00,58.1,33.2,30.18,ENE,68,5.4,10.5,39,0.00,,,0.00,WUHU216HW,2013-04-21 21:35:00,
2013-04-21 17:40:00,58.3,33.4,30.18,South,180,3.8,10.5,39,0.00,,,0.00,WUHU216HW,2013-04-21 21:40:00,
2013-04-21 17:45:00,58.3,32.7,30.18,ESE,113,7.2,8.9,38,0.00,,,0.00,WUHU216HW,2013-04-21 21:45:00,
2013-04-21 17:50:00,58.5,32.9,30.18,SE,135,7.4,9.2,38,0.00,,,0.00,WUHU216HW,2013-04-21 21:50:00,
2013-04-21 17:55:00,58.5,32.9,30.18,East,90,8.7,11.4,38,0.00,,,0.00,WUHU216HW,2013-04-21 21:55:00,
2013-04-21 18:00:00,58.7,33.0,30.18,ESE,113,8.5,11.4,38,0.00,,,0.00,WUHU216HW,2013-04-21 22:00:00,
2013-04-21 18:05:00,58.7,32.3,30.18,ESE,113,10.1,10.1,37,0.00,,,0.00,WUHU216HW,2013-04-21 22:05:00,
2013-04-21 18:10:00,58.0,31.7,30.18,ENE,68,2.5,10.1,37,0.00,,,0.00,WUHU216HW,2013-04-21 22:10:00,
2013-04-21 18:15:00,57.4,31.9,30.19,North,0,4.5,9.6,38,0.00,,,0.00,WUHU216HW,2013-04-21 22:15:00,
2013-04-21 18:20:00,57.4,31.9,30.19,East,90,11.6,11.6,38,0.00,,,0.00,WUHU216HW,2013-04-21 22:20:00,
2013-04-21 18:25:00,57.2,31.7,30.19,East,90,4.0,11.6,38,0.00,,,0.00,WUHU216HW,2013-04-21 22:25:00,
2013-04-21 18:30:00,57.1,31.6,30.19,ENE,68,4.7,10.5,38,0.00,,,0.00,WUHU216HW,2013-04-21 22:30:00,
2013-04-21 18:35:00,56.9,31.4,30.19,East,90,6.5,10.1,38,0.00,,,0.00,WUHU216HW,2013-04-21 22:35:00,
2013-04-21 18:40:00,56.5,31.1,30.19,ENE,68,6.3,8.9,38,0.00,,,0.00,WUHU216HW,2013-04-21 22:40:00,
2013-04-21 18:45:00,56.7,31.2,30.19,East,90,7.8,8.5,38,0.00,,,0.00,WUHU216HW,2013-04-21 22:45:00,
2013-04-21 18:50:00,56.3,30.9,30.19,SSE,158,7.6,8.1,38,0.00,,,0.00,WUHU216HW,2013-04-21 22:50:00,
2013-04-21 18:55:00,55.6,30.2,30.19,SE,135,2.7,8.5,38,0.00,,,0.00,WUHU216HW,2013-04-21 22:55:00,
2013-04-21 19:00:00,55.3,30.0,30.19,East,90,6.5,8.5,38,0.00,,,0.00,WUHU216HW,2013-04-21 23:00:00,
2013-04-21 19:05:00,54.7,29.4,30.19,East,90,4.7,9.4,38,0.00,,,0.00,WUHU216HW,2013-04-21 23:05:00,
2013-04-21 19:10:00,54.4,29.9,30.19,ESE,113,4.3,9.4,39,0.00,,,0.00,WUHU216HW,2013-04-21 23:10:00,
2013-04-21 19:15:00,53.5,29.1,30.19,East,90,6.9,8.3,39,0.00,,,0.00,WUHU216HW,2013-04-21 23:15:00,
2013-04-21 19:20:00,52.6,28.3,30.19,ESE,113,4.0,8.3,39,0.00,,,0.00,WUHU216HW,2013-04-21 23:20:00,
2013-04-21 19:25:00,52.0,28.5,30.19,ESE,113,2.5,6.9,40,0.00,,,0.00,WUHU216HW,2013-04-21 23:25:00,
2013-04-21 19:31:00,51.3,27.8,30.19,SE,135,5.4,9.4,40,0.00,,,0.00,WUHU216HW,2013-04-21 23:31:00,
2013-04-21 19:36:00,50.6,27.7,30.19,SE,135,4.7,9.4,41,0.00,,,0.00,WUHU216HW,2013-04-21 23:36:00,
2013-04-21 19:41:00,50.0,27.2,30.19,SE,135,6.7,6.7,41,0.00,,,0.00,WUHU216HW,2013-04-21 23:41:00,
2013-04-21 19:46:00,49.7,26.9,30.19,ENE,68,5.1,9.2,41,0.00,,,0.00,WUHU216HW,2013-04-21 23:46:00,
2013-04-21 19:51:00,49.7,27.5,30.19,East,90,6.3,9.2,42,0.00,,,0.00,WUHU216HW,2013-04-21 23:51:00,
2013-04-21 19:56:00,49.1,27.5,30.20,East,90,8.7,9.2,43,0.00,,,0.00,WUHU216HW,2013-04-21 23:56:00,
2013-04-21 20:01:00,48.6,27.0,30.19,ESE,113,4.9,9.2,43,0.00,,,0.00,WUHU216HW,2013-04-22 00:01:00,
2013-04-21 20:06:00,47.9,26.8,30.20,ESE,113,5.1,8.7,44,0.00,,,0.00,WUHU216HW,2013-04-22 00:06:00,
2013-04-21 20:11:00,47.3,26.4,30.20,ESE,113,5.1,8.5,44,0.00,,,0.00,WUHU216HW,2013-04-22 00:11:00,
2013-04-21 20:16:00,46.6,26.3,30.20,SE,135,6.0,9.4,45,0.00,,,0.00,WUHU216HW,2013-04-22 00:16:00,
2013-04-21 20:21:00,45.7,25.5,30.20,SSE,158,4.9,9.4,45,0.00,,,0.00,WUHU216HW,2013-04-22 00:21:00,
2013-04-21 20:26:00,45.0,25.4,30.20,ESE,113,8.5,9.4,46,0.00,,,0.00,WUHU216HW,2013-04-22 00:26:00,
2013-04-21 20:31:00,44.5,24.8,30.20,SE,135,5.8,9.4,46,0.00,,,0.00,WUHU216HW,2013-04-22 00:31:00,
2013-04-21 20:36:00,44.1,25.1,30.20,NNE,23,6.5,9.4,47,0.00,,,0.00,WUHU216HW,2013-04-22 00:36:00,
2013-04-21 20:41:00,43.6,24.6,30.20,ESE,113,5.6,9.4,47,0.00,,,0.00,WUHU216HW,2013-04-22 00:41:00,
2013-04-21 20:46:00,43.2,24.9,30.20,East,90,7.6,8.1,48,0.00,,,0.00,WUHU216HW,2013-04-22 00:46:00,
2013-04-21 20:51:00,42.8,24.5,30.20,East,90,8.5,8.5,48,0.00,,,0.00,WUHU216HW,2013-04-22 00:51:00,
2013-04-21 20:56:00,42.5,24.7,30.20,ESE,113,5.4,9.2,49,0.00,,,0.00,WUHU216HW,2013-04-22 00:56:00,
2013-04-21 21:01:00,42.1,24.3,30.20,SE,135,6.5,9.2,49,0.00,,,0.00,WUHU216HW,2013-04-22 01:01:00,
2013-04-21 21:06:00,41.9,24.1,30.20,SE,135,6.3,8.1,49,0.00,,,0.00,WUHU216HW,2013-04-22 01:06:00,
2013-04-21 21:10:00,41.6,23.8,30.21,South,180,6.7,8.1,49,0.00,,,0.00,WUHU216HW,2013-04-22 01:10:00,
2013-04-21 21:15:00,41.4,23.6,30.20,East,90,4.0,8.1,49,0.00,,,0.00,WUHU216HW,2013-04-22 01:15:00,
2013-04-21 21:20:00,40.9,23.6,30.21,SE,135,5.4,8.9,50,0.00,,,0.00,WUHU216HW,2013-04-22 01:20:00,
2013-04-21 21:25:00,40.5,23.3,30.21,SSE,158,4.9,8.9,50,0.00,,,0.00,WUHU216HW,2013-04-22 01:25:00,
2013-04-21 21:30:00,40.3,23.6,30.21,ESE,113,6.3,10.3,51,0.00,,,0.00,WUHU216HW,2013-04-22 01:30:00,
2013-04-21 21:35:00,40.0,23.7,30.21,SSE,158,8.7,10.3,52,0.00,,,0.00,WUHU216HW,2013-04-22 01:35:00,
2013-04-21 21:40:00,39.8,23.5,30.21,SE,135,6.9,9.4,52,0.00,,,0.00,WUHU216HW,2013-04-22 01:40:00,
2013-04-21 21:45:00,39.4,23.1,30.21,East,90,12.1,12.1,52,0.00,,,0.00,WUHU216HW,2013-04-22 01:45:00,
2013-04-21 21:50:00,39.1,22.9,30.20,East,90,4.3,12.1,52,0.00,,,0.00,WUHU216HW,2013-04-22 01:50:00,
2013-04-21 21:55:00,38.9,22.7,30.21,SE,135,7.6,10.5,52,0.00,,,0.00,WUHU216HW,2013-04-22 01:55:00,
2013-04-21 22:00:00,38.9,23.1,30.21,ESE,113,7.8,8.9,53,0.00,,,0.00,WUHU216HW,2013-04-22 02:00:00,
2013-04-21 22:05:00,38.7,23.0,30.21,ESE,113,5.8,8.9,53,0.00,,,0.00,WUHU216HW,2013-04-22 02:05:00,
2013-04-21 22:10:00,38.5,22.8,30.21,SE,135,6.7,7.8,53,0.00,,,0.00,WUHU216HW,2013-04-22 02:10:00,
2013-04-21 22:15:00,38.5,22.8,30.20,ENE,68,5.6,7.4,53,0.00,,,0.00,WUHU216HW,2013-04-22 02:15:00,
2013-04-21 22:20:00,38.3,22.6,30.20,ESE,113,6.3,8.7,53,0.00,,,0.00,WUHU216HW,2013-04-22 02:20:00,
2013-04-21 22:25:00,38.2,22.5,30.20,ESE,113,6.5,8.7,53,0.00,,,0.00,WUHU216HW,2013-04-22 02:25:00,
2013-04-21 22:30:00,38.0,22.3,30.20,SE,135,8.5,8.5,53,0.00,,,0.00,WUHU216HW,2013-04-22 02:30:00,
2013-04-21 22:35:00,37.8,22.1,30.20,ESE,113,5.4,8.5,53,0.00,,,0.00,WUHU216HW,2013-04-22 02:35:00,
2013-04-21 22:40:00,37.6,22.0,30.19,SSE,158,7.8,9.6,53,0.00,,,0.00,WUHU216HW,2013-04-22 02:40:00,
2013-04-21 22:45:00,37.4,21.8,30.19,SSE,158,8.7,9.6,53,0.00,,,0.00,WUHU216HW,2013-04-22 02:45:00,
2013-04-21 22:50:00,37.3,21.7,30.19,ESE,113,5.1,8.7,53,0.00,,,0.00,WUHU216HW,2013-04-22 02:50:00,
2013-04-21 22:55:00,37.1,21.5,30.19,SE,135,4.0,8.7,53,0.00,,,0.00,WUHU216HW,2013-04-22 02:55:00,
2013-04-21 23:00:00,37.1,21.5,30.19,SE,135,5.8,7.4,53,0.00,,,0.00,WUHU216HW,2013-04-22 03:00:00,
2013-04-21 23:05:00,37.1,21.5,30.19,SSE,158,4.7,8.1,53,0.00,,,0.00,WUHU216HW,2013-04-22 03:05:00,
2013-04-21 23:10:00,36.9,21.3,30.19,ESE,113,5.4,8.1,53,0.00,,,0.00,WUHU216HW,2013-04-22 03:10:00,
2013-04-21 23:15:00,36.7,21.2,30.19,ESE,113,4.3,7.6,53,0.00,,,0.00,WUHU216HW,2013-04-22 03:15:00,
2013-04-21 23:20:00,36.7,21.6,30.19,SE,135,3.1,7.6,54,0.00,,,0.00,WUHU216HW,2013-04-22 03:20:00,
2013-04-21 23:25:00,36.5,21.4,30.19,ESE,113,3.8,6.3,54,0.00,,,0.00,WUHU216HW,2013-04-22 03:25:00,
2013-04-21 23:30:00,36.5,21.4,30.19,SSE,158,3.4,6.7,54,0.00,,,0.00,WUHU216HW,2013-04-22 03:30:00,
2013-04-21 23:35:00,36.4,21.7,30.18,SE,135,4.7,6.7,55,0.00,,,0.00,WUHU216HW,2013-04-22 03:35:00,
2013-04-21 23:40:00,36.4,21.7,30.19,ESE,113,2.9,5.4,55,0.00,,,0.00,WUHU216HW,2013-04-22 03:40:00,
2013-04-21 23:45:00,36.4,21.7,30.18,SW,225,2.0,4.9,55,0.00,,,0.00,WUHU216HW,2013-04-22 03:45:00,
2013-04-21 23:50:00,36.2,21.5,30.18,SSE,158,2.7,6.0,55,0.00,,,0.00,WUHU216HW,2013-04-22 03:50:00,
2013-04-21 23:55:00,36.0,21.8,30.18,SSE,158,3.4,6.0,56,0.00,,,0.00,WUHU216HW,2013-04-22 03:55:00,